RH
52 49 45 42 38 35 33 30 28 27 24 22 21 20 19 18 18 18 17 18 18 20 22 21 19 20 23 27 28 27 27 27 29 31 32 33 34 34 35 35 35 36 37 37 37 37 37 38 38 38 39 39 40 40 41 41 41 41 41 40 40 40 40 40 40 40 41 42 43 44 45 46 47 47 48 49 50 52 53 52 52 53 53 54 56 57
35 31 27 25 22 20 18 17 16 15 15 15 15 16 16 16 16 18 19 21 22 23 27 25 22 24 26 30 31 30 30 30 32 33 34 35 35 34 34 33 33 33 33 33 33 35 36 38 39 41 44 45 47 49 50 51 52 52 53 53 54 55 55 56 56 56 56 57 59 61 61 62 63 62 60 60 61 61 63 64 63 64 64 65 67 69
19 17 16 15 14 14 14 14 14 15 15 16 17 18 19 19 20 21 23 26 26 25 27 28 24 23 24 27 28 27 27 26 25 26 25 25 24 24 23 23 23 23 24 25 26 29 31 35 38 42 46 50 53 56 58 60 62 63 64 65 66 67 68 70 71 72 72 74 75 77 77 77 78 78 76 74 75 75 77 79 79 79 79 79 80 80
13 14 14 14 14 15 15 16 17 18 17 18 19 18 19 20 19 19 21 23 24 22 23 24 22 20 20 20 20 18 16 14 13 12 12 12 11 11 11 11 11 11 12 13 14 16 18 21 25 29 34 40 46 51 57 61 65 69 72 75 77 79 81 84 86 88 88 89 90 91 92 93 94 95 94 92 92 92 92 94 94 94 94 95 94 93
15 15 16 16 16 15 16 16 17 18 16 15 15 15 15 16 16 16 16 18 19 17 17 16 14 13 13 12 10 8 6 6 5 5 4 4 4 4 4 4 4 4 4 4 4 5 5 7 8 10 14 19 27 36 45 56 65 75 83 90 94 95 97 97 98 100 100 100 99 99 100 99 100 100 100 100 100 100 100 100 100 100 100 100 100 100
15 15 14 13 12 11 11 11 11 12 12 13 14 14 14 14 15 14 13 12 11 9 9 7 5 5 6 5 4 3 3 3 3 3 3 3 3 3 3 3 3 3 3 3 3 3 3 3 3 4 5 6 10 16 24 35 48 63 78 92 100 101 100 100 100 100 100 100 100 100 100 100 101 101 100 100 100 100 100 100 100 100 100 100 100 100
11 9 8 8 8 8 9 10 11 12 13 14 14 13 12 10 9 8 7 6 5 4 4 4 3 4 3 3 3 3 4 4 4 4 4 4 4 4 4 4 4 4 4 4 4 4 4 4 4 4 4 4 4 5 7 12 21 36 55 77 94 101 102 101 100 101 101 101 101 100 100 99 100 101 101 101 101 101 101 101 101 101 100 100 100 99
7 7 8 9 11 12 12 12 12 11 10 9 8 7 6 5 4 4 4 4 4 4 3 4 4 4 4 4 4 4 4 4 4 4 4 4 4 5 5 5 5 5 5 5 5 5 5 5 5 5 5 6 5 5 5 6 9 17 30 49 68 81 88 91 92 93 95 96 97 98 100 100 100 101 101 100 101 101 101 101 101 102 101 100 100 100
10 10 11 11 10 9 8 8 7 6 5 4 4 4 4 4 4 4 4 4 4 4 4 5 5 4 4 4 4 4 4 4 5 5 5 6 6 6 6 6 6 6 6 6 6 7 7 7 7 7 7 7 7 8 7 7 8 9 12 18 26 35 44 53 61 68 75 80 82 85 88 91 94 96 97 98 99 100 100 100 100 100 100 100 100 100
10 9 7 6 5 5 4 4 4 4 4 4 4 4 4 4 4 4 5 5 5 5 5 5 5 4 4 4 5 5 5 6 7 7 8 8 8 8 8 8 8 8 8 8 8 8 8 8 8 8 8 9 9 9 9 10 10 10 10 10 11 12 15 20 27 35 45 55 62 67 72 78 82 85 86 88 90 92 93 95 97 98 99 100 100 100
5 4 4 4 3 3 3 4 4 4 4 4 5 5 5 5 5 5 5 5 5 5 5 4 4 5 5 6 6 7 7 8 9 9 9 9 9 9 10 10 10 10 10 10 10 10 10 10 10 10 10 10 10 10 11 11 11 11 12 12 12 12 12 13 14 16 20 26 30 36 43 51 58 63 67 71 75 79 82 84 86 88 89 91 93 94
3 3 3 3 3 4 4 4 4 5 5 5 5 5 5 5 5 5 5 5 5 4 4 5 5 6 7 8 8 8 9 10 10 11 10 10 10 10 11 11 11 12 12 12 12 12 13 13 13 13 13 13 12 12 12 13 13 13 13 14 14 14 14 15 15 16 17 17 18 19 20 23 27 31 35 41 49 56 63 69 73 76 77 78 80 81
3 3 3 3 3 4 4 4 5 5 5 5 5 4 4 3 3 4 4 4 4 5 5 6 7 7 8 9 10 9 10 12 12 12 12 12 11 12 13 13 13 13 13 13 14 15 16 16 16 17 16 16 16 15 15 15 15 16 16 16 16 17 17 17 18 19 20 22 22 23 23 22 22 22 22 22 25 28 33 39 45 51 57 63 67 71
2 3 2 2 3 3 3 4 4 4 4 4 3 3 3 3 3 4 4 4 5 5 6 7 8 9 9 10 11 11 12 13 14 15 14 14 14 15 16 16 15 15 15 15 16 18 19 19 20 21 21 21 20 19 18 18 18 18 18 18 18 18 19 19 20 20 22 24 25 27 28 28 28 29 29 28 26 25 24 25 25 26 29 34 40 48
2 2 2 2 2 2 3 3 2 3 3 3 3 3 4 4 4 5 5 5 6 6 7 8 9 11 11 11 13 13 14 15 16 17 17 17 18 18 19 20 19 18 19 19 19 20 22 23 24 24 25 24 23 22 21 20 20 20 19 19 19 19 19 19 20 20 22 24 26 28 30 32 33 34 35 35 34 33 32 31 30 28 25 23 22 24
2 2 2 2 2 2 2 3 3 3 3 3 4 4 4 4 5 5 5 6 7 7 8 9 11 13 12 12 15 15 15 16 18 19 20 21 21 21 22 23 23 23 23 23 23 24 25 26 26 27 27 27 27 26 24 23 22 21 21 20 20 20 20 20 20 20 21 23 24 26 28 30 32 34 36 38 39 38 38 37 36 35 34 33 29 25
2 2 3 2 3 3 3 3 3 3 3 4 4 4 5 5 5 6 6 7 7 8 9 10 12 14 13 13 15 16 15 18 19 20 21 23 23 23 24 26 26 27 27 27 27 27 28 29 29 30 29 29 29 29 27 26 24 23 22 21 21 21 20 20 21 21 21 23 24 25 27 29 30 32 34 37 41 43 45 45 44 43 42 43 42 39
2 3 3 3 3 3 3 3 3 4 4 4 4 5 5 5 6 7 7 8 8 9 10 10 12 15 16 14 15 16 18 21 21 21 22 24 25 25 25 28 29 30 30 30 30 30 30 31 31 32 31 30 31 31 30 29 27 25 24 23 23 22 22 22 22 23 24 24 25 25 27 28 29 32 34 39 45 50 54 57 56 53 51 52 53 51
3 3 3 3 3 3 3 3 3 4 4 4 5 5 5 6 6 7 8 9 10 10 9 10 12 17 19 18 18 19 21 23 23 23 24 25 26 27 28 30 31 33 34 34 34 33 33 33 33 33 33 32 33 33 33 32 30 28 27 25 25 25 24 24 23 24 25 25 26 26 27 29 30 33 36 41 47 54 61 65 65 62 58 59 62 63
3 3 3 3 3 3 3 4 4 4 4 5 5 5 6 6 7 8 9 11 12 12 12 10 10 16 22 22 23 22 21 24 25 25 26 28 30 32 34 37 39 40 41 40 39 38 36 36 36 36 36 35 35 35 34 33 32 30 29 27 27 26 25 25 24 25 26 26 26 27 29 31 32 34 37 41 47 55 63 69 72 70 65 63 67 72
3 3 3 3 3 3 4 4 4 4 5 5 5 6 7 7 8 9 9 11 13 14 16 14 10 15 23 24 24 24 22 25 27 26 28 30 33 37 41 46 49 49 47 43 41 41 39 39 39 39 39 37 37 36 35 34 33 32 31 30 29 28 27 27 26 25 26 27 28 30 32 34 35 36 38 42 48 57 65 72 77 77 72 68 71 78
3 3 3 4 4 4 4 5 5 5 5 5 6 6 8 9 9 10 10 11 14 16 19 19 12 13 20 22 24 24 23 26 29 29 30 31 33 38 43 47 50 49 46 42 41 42 41 41 41 41 41 40 39 38 37 36 35 34 34 32 31 31 30 29 28 27 28 29 30 33 35 37 38 38 40 44 52 63 71 78 83 84 78 73 75 81
4 4 4 4 4 5 5 5 6 6 6 6 7 8 10 11 10 12 13 13 16 19 21 21 16 13 18 23 25 26 25 28 32 32 33 33 33 37 40 41 43 44 44 44 45 46 44 43 43 43 43 44 43 41 40 38 38 37 36 35 34 33 33 31 30 30 30 31 34 38 41 43 44 43 44 48 56 67 76 83 89 90 84 80 80 85
4 4 4 4 4 5 5 6 6 7 8 8 8 9 11 12 12 13 16 16 17 20 21 22 18 15 20 26 29 29 29 31 34 36 35 34 34 36 38 42 46 48 48 49 53 55 53 48 45 45 46 46 46 44 43 43 42 41 40 37 36 35 35 34 33 32 32 35 39 45 49 53 53 51 52 55 60 69 78 84 90 93 89 85 85 88
5 5 5 5 5 5 5 6 6 7 8 8 8 8 9 12 14 15 17 17 18 19 20 23 21 17 23 30 31 31 32 32 35 37 37 37 36 37 39 45 53 59 61 64 66 65 60 53 48 46 47 47 47 47 46 46 46 46 44 41 39 37 37 36 35 34 35 39 46 53 59 64 66 64 63 64 66 71 78 84 90 93 91 87 86 89
5 5 5 6 6 6 6 7 7 8 10 11 11 10 9 11 15 17 18 19 20 19 20 25 24 18 22 31 33 32 34 35 37 40 41 40 38 37 39 45 54 64 72 76 76 72 66 59 51 47 47 48 48 48 48 49 51 51 48 44 41 40 39 39 38 38 41 48 56 65 72 77 80 79 76 76 75 76 81 85 89 93 92 89 87 89
6 6 7 7 8 8 9 10 10 10 12 14 16 16 13 12 14 17 19 21 22 21 20 26 28 22 23 31 34 34 36 38 39 41 42 43 42 40 40 44 51 60 69 75 77 77 73 65 55 49 48 49 49 49 49 52 55 56 52 47 44 42 42 42 43 46 53 62 72 82 88 90 93 94 92 90 88 87 89 90 92 94 95 93 90 91
6 7 8 8 10 10 10 11 12 12 13 14 16 17 17 15 14 16 19 22 23 23 22 25 29 28 28 32 34 35 38 39 40 41 43 45 44 42 42 44 49 58 70 79 84 86 82 71 58 51 49 51 50 50 52 55 59 59 56 51 47 45 45 46 50 58 69 80 90 98 100 100 100 102 103 103 102 100 99 98 98 99 100 98 96 95
7 8 8 8 11 11 11 11 12 12 13 14 16 17 18 18 17 17 18 21 24 25 26 27 28 28 30 33 35 36 39 41 41 42 45 47 47 45 44 45 49 60 77 91 96 97 90 76 61 53 51 52 51 52 55 59 62 63 59 55 51 48 48 50 59 72 84 95 101 104 103 102 101 102 103 104 105 104 103 103 104 104 105 105 104 103
7 8 8 8 10 11 12 12 12 12 13 15 17 18 17 19 20 20 19 22 25 27 28 28 27 27 30 33 35 38 41 43 45 46 48 50 50 48 46 47 51 62 81 96 101 102 95 79 62 54 52 52 52 54 58 63 66 66 63 59 55 52 53 58 71 85 96 101 104 103 101 101 101 100 100 101 102 101 101 102 102 103 104 105 106 106
8 8 9 9 9 11 12 12 11 12 13 14 16 18 18 18 20 21 21 23 25 27 28 28 27 27 31 33 36 39 42 45 47 49 50 51 51 50 48 50 54 67 86 99 103 104 97 79 62 55 53 53 54 57 62 68 70 69 66 64 61 59 62 71 85 97 102 102 102 101 101 100 100 100 100 100 101 101 101 101 101 101 102 102 102 103
8 8 9 9 9 10 11 11 11 11 12 15 17 17 18 19 20 21 22 24 26 27 27 27 27 29 31 35 38 40 43 45 47 49 51 53 53 51 50 52 58 75 95 103 104 104 95 76 61 55 54 54 57 61 68 75 75 71 68 67 66 67 74 85 97 102 102 101 100 100 100 100 100 100 100 100 100 101 101 102 102 102 101 100 100 102
8 9 9 9 9 10 11 12 11 11 13 15 16 17 18 20 21 22 22 23 25 26 26 26 27 30 33 36 39 41 43 46 48 50 55 56 55 53 53 55 64 83 99 104 104 102 87 69 59 55 54 57 60 66 74 79 77 71 69 69 71 77 86 96 102 103 101 100 100 100 100 100 100 100 100 100 100 101 101 101 102 101 100 100 100 101
9 9 10 10 9 10 11 12 11 12 14 15 17 18 19 21 21 21 21 23 24 24 25 26 28 31 35 38 41 44 46 48 51 55 58 59 58 56 56 61 76 93 102 103 101 93 75 61 56 55 57 61 67 73 79 78 72 67 66 69 76 86 97 102 103 101 101 100 100 100 100 100 100 100 100 100 100 100 101 101 100 100 100 100 100 100
10 10 10 11 10 10 11 12 11 11 13 16 17 18 18 19 19 18 19 22 24 24 25 28 30 34 38 41 44 47 50 52 55 59 61 62 61 59 62 73 89 98 99 98 90 77 63 56 55 57 62 69 76 80 79 73 67 63 64 72 84 95 102 103 101 100 101 100 100 100 100 100 100 99 100 100 99 100 101 100 100 100 100 100 100 100
10 10 10 10 10 11 12 11 11 11 13 16 17 17 18 18 19 19 19 21 24 26 27 31 35 38 41 44 48 50 53 55 58 61 64 64 62 65 73 84 94 96 95 89 77 63 57 56 58 63 71 77 80 78 72 68 65 65 72 84 96 101 103 102 100 100 100 100 100 100 100 100 100 100 100 100 100 100 100 100 100 100 100 100 100 101
11 11 11 10 11 12 12 11 11 11 12 15 16 17 17 18 21 23 22 21 25 28 31 35 39 42 45 49 52 54 56 58 59 63 66 65 66 75 85 93 99 101 93 78 64 58 58 61 67 74 78 78 74 70 68 68 69 75 88 99 102 102 101 100 100 100 100 100 100 100 100 100 100 100 100 100 100 100 100 100 100 100 100 100 100 100
11 12 11 11 12 13 13 12 11 11 13 16 17 18 17 19 23 27 26 25 28 32 37 42 45 47 50 53 55 57 59 61 63 66 68 70 77 89 97 102 102 95 78 63 58 60 65 71 77 78 75 69 66 66 70 74 81 92 102 103 101 100 100 100 100 100 100 100 100 100 100 100 100 100 100 100 100 100 100 100 100 100 100 100 100 100
13 13 12 13 13 13 14 14 13 13 15 16 17 17 17 20 26 29 28 28 32 38 44 48 51 53 55 56 58 61 64 67 68 69 71 79 90 100 104 103 93 77 63 59 63 70 75 79 77 70 64 60 59 64 74 86 95 102 104 101 99 100 100 100 100 100 100 100 100 100 100 100 100 100 100 100 100 100 100 100 100 100 100 100 100 100
14 14 14 14 14 15 16 15 15 16 18 18 19 18 20 26 31 31 30 33 40 46 49 51 56 60 60 61 63 65 68 70 71 73 80 92 101 103 100 91 77 65 62 67 75 79 78 72 63 56 53 54 59 69 86 99 103 102 101 100 100 100 100 100 100 100 100 100 100 100 100 100 100 100 100 100 100 100 100 100 100 100 100 100 100 99
17 16 17 17 17 18 18 18 19 22 22 20 21 22 26 31 32 32 35 39 41 48 57 65 70 70 67 66 68 69 71 73 75 81 92 101 103 96 86 76 68 67 72 78 79 74 64 55 48 44 43 47 55 70 88 101 102 101 101 100 99 100 100 100 100 100 100 100 100 100 100 100 100 100 100 100 100 100 100 100 100 100 100 100 100 99
22 21 23 23 22 22 22 22 26 28 27 26 27 30 33 36 36 40 46 49 50 63 79 85 81 76 71 70 71 71 72 75 83 94 102 100 92 81 73 70 72 77 81 76 67 55 45 38 34 30 30 36 45 60 80 94 99 100 101 100 100 100 100 99 100 100 100 100 100 100 100 100 100 100 100 100 100 100 100 100 100 100 100 100 100 100
31 29 31 31 30 29 28 30 32 34 34 35 35 36 39 42 45 49 57 65 74 87 93 87 79 76 74 72 71 71 75 84 95 102 97 85 75 71 70 74 78 76 69 57 45 36 28 22 18 16 18 25 34 49 69 86 95 99 100 100 100 100 100 100 100 100 100 100 100 100 100 100 100 100 100 100 100 100 100 100 100 100 100 100 100 100
45 43 45 45 41 37 35 38 40 41 43 44 44 46 50 52 56 65 76 84 89 91 88 81 77 76 74 72 70 74 85 95 97 90 79 69 67 69 71 72 69 60 48 37 27 20 15 12 12 12 14 20 30 42 57 73 87 97 101 100 100 100 100 100 100 100 100 100 100 100 100 100 100 100 100 100 100 100 100 100 100 100 100 100 100 99
62 62 63 61 56 51 48 48 50 52 54 54 56 62 66 65 69 82 94 96 92 89 87 84 81 77 73 71 74 83 96 99 87 73 66 63 63 64 61 56 49 39 30 21 14 11 10 12 13 14 15 18 24 32 42 58 79 95 100 100 100 100 100 100 100 100 100 100 100 100 100 100 100 100 100 100 100 100 100 100 100 100 100 100 100 97
76 77 78 76 73 69 63 57 56 58 60 62 68 77 82 80 83 91 97 97 95 94 92 88 83 76 71 74 84 96 100 91 75 63 60 58 53 48 44 39 33 25 17 11 9 9 11 13 15 16 16 17 18 22 33 53 78 96 100 100 100 100 100 100 100 100 100 100 100 100 100 100 100 100 100 100 100 100 100 100 100 100 100 100 99 96
86 86 85 84 82 79 72 65 62 63 65 69 75 81 82 80 84 94 101 102 100 98 94 88 79 72 73 84 97 100 90 76 65 57 52 46 40 35 32 28 22 14 9 8 9 11 12 13 15 16 16 17 18 21 33 58 86 100 100 100 100 100 100 100 100 100 100 100 100 100 100 100 100 100 100 100 100 100 100 100 100 99 100 100 98 96
95 93 93 90 86 84 78 72 70 70 72 78 83 84 80 76 80 91 99 100 98 95 91 83 73 73 84 97 99 88 73 63 57 50 41 35 30 27 25 20 13 8 8 9 10 11 11 14 14 15 16 16 17 25 42 69 94 102 100 100 100 99 100 100 100 100 100 100 100 100 100 100 100 100 100 100 100 100 99 100 100 100 101 102 98 94
101 99 99 95 88 85 83 79 75 72 72 80 87 87 83 82 82 86 90 92 93 89 81 73 73 83 97 102 90 74 61 53 47 40 32 27 24 21 17 12 8 8 9 10 10 10 12 13 13 13 14 14 20 37 59 82 98 102 100 100 100 99 100 100 100 100 100 100 100 100 100 100 100 100 100 100 100 100 100 101 102 101 101 101 99 94
105 102 102 97 88 85 86 84 82 78 76 81 87 86 83 82 81 81 84 86 84 77 70 70 81 94 100 94 79 64 54 46 39 31 24 20 18 15 12 8 7 9 10 10 10 10 11 12 11 11 12 14 26 48 70 87 99 102 100 100 100 99 100 100 100 100 100 100 100 100 100 100 100 99 100 100 100 100 101 103 106 105 102 101 101 100
103 103 102 98 91 90 92 92 91 90 88 89 91 90 87 84 81 81 82 80 74 69 69 79 92 97 90 78 67 58 49 39 31 23 18 16 14 11 8 7 8 10 10 9 9 10 10 11 10 10 11 18 34 56 77 91 100 102 99 99 100 99 100 100 100 101 100 100 100 100 100 100 101 101 101 100 99 99 101 103 107 108 106 102 100 100
Wind_Speed
25 25 25 25 26 27 27 28 29 29 30 31 33 34 35 36 37 39 39 40 41 41 44 45 45 45 46 46 48 49 50 51 52 53 53 54 55 56 57 58 59 60 60 61 62 63 63 64 65 66 66 67 67 68 69 69 70 71 71 72 73 74 74 75 76 76 77 77 77 78 78 78 78 78 78 78 78 78 78 78 78 78 78 77 77 77
23 23 24 24 25 26 27 28 29 30 31 32 33 34 35 36 37 38 39 41 42 42 45 46 46 46 47 48 50 51 52 53 53 54 55 56 57 57 58 59 60 61 62 62 63 64 64 65 65 65 66 66 67 68 68 69 69 70 70 71 71 72 73 73 74 74 75 75 75 76 76 76 77 77 77 77 78 77 77 77 77 77 77 77 77 77
21 22 23 24 24 25 26 27 29 30 30 31 32 33 35 37 38 39 40 42 44 44 47 49 49 49 50 51 52 53 54 54 54 55 56 57 58 59 60 60 61 61 62 63 63 64 64 64 65 65 65 66 66 67 68 68 69 70 70 71 71 71 72 72 73 73 74 74 75 75 75 76 76 77 77 77 77 77 77 77 77 77 77 77 78 77
20 21 22 23 23 25 26 27 29 30 32 33 35 36 37 39 40 41 42 43 46 46 47 50 51 51 51 51 52 52 52 52 52 53 54 55 56 57 58 58 59 60 60 61 62 63 63 64 64 65 65 66 66 67 67 68 68 69 70 70 71 71 72 72 73 73 73 74 74 74 75 75 75 75 75 76 76 76 76 76 76 76 77 77 77 77
21 22 23 24 26 27 28 29 31 32 34 36 38 39 40 41 42 43 44 44 46 46 46 47 48 49 50 50 49 47 47 48 48 49 50 51 52 53 54 55 56 57 57 58 59 60 61 62 63 64 64 65 65 66 66 66 67 67 67 68 68 69 69 70 70 70 71 71 72 72 72 72 73 73 74 74 74 74 75 75 75 75 76 76 76 76
24 25 26 28 29 30 31 32 33 35 36 37 39 40 41 41 42 42 42 42 43 44 43 42 43 45 46 46 45 44 44 44 44 45 46 47 49 50 50 51 52 53 54 55 55 56 57 58 59 60 61 62 63 64 64 65 65 65 65 66 66 66 67 67 67 67 68 68 68 68 69 69 69 70 70 71 71 72 72 73 73 74 75 75 75 75
26 27 28 30 31 32 33 34 35 36 37 37 38 39 39 39 39 39 40 40 39 39 39 38 38 40 42 42 42 42 42 42 42 42 43 44 46 47 48 49 49 50 50 51 51 52 52 53 54 55 56 57 58 60 61 63 64 64 64 64 64 64 65 65 66 67 67 67 67 67 67 67 67 68 68 69 69 70 70 70 71 72 73 74 74 74
28 29 30 32 33 34 35 35 36 36 36 36 37 37 37 37 37 36 37 37 36 36 36 35 35 36 38 39 40 41 41 41 41 41 41 41 42 43 44 44 45 45 46 46 47 47 47 48 48 49 50 50 51 52 54 55 58 60 62 63 63 63 63 63 64 64 65 66 67 68 68 69 69 69 69 69 70 71 71 71 72 73 73 74 74 75
29 31 31 33 34 34 35 35 35 36 36 35 35 35 34 34 34 33 33 33 33 33 32 32 33 35 35 35 36 38 39 40 40 39 39 39 39 39 40 40 41 41 41 41 42 42 43 43 44 44 45 45 46 46 47 48 49 51 53 55 57 59 60 61 62 62 63 64 65 66 68 69 70 71 72 72 73 73 73 73 74 75 76 76 77 77
30 31 32 33 33 33 34 34 35 35 34 33 32 32 31 31 31 31 31 31 30 30 30 30 32 35 34 33 33 36 37 38 39 39 39 39 39 39 40 40 40 40 40 40 40 40 40 41 42 42 43 44 44 45 46 47 48 48 49 50 51 53 54 56 58 60 62 63 65 66 68 69 70 72 73 74 75 76 77 77 78 79 79 79 80 80
31 32 33 33 33 34 34 33 33 33 32 31 30 30 30 30 30 30 30 28 27 27 28 29 30 32 33 33 34 36 37 37 39 39 40 40 40 41 41 42 42 42 42 42 42 42 42 42 43 43 44 45 46 46 47 48 49 50 51 52 52 53 54 54 56 57 59 61 63 66 68 70 72 73 75 76 77 78 79 80 81 82 82 83 84 84
30 31 32 32 33 33 33 32 32 31 30 30 29 29 29 29 28 27 26 26 27 27 27 28 27 29 32 34 35 36 37 39 40 41 42 42 42 43 43 44 44 44 45 45 45 45 45 45 46 46 47 48 49 49 50 51 52 53 54 55 55 56 57 58 58 59 60 61 63 64 66 67 70 72 75 77 79 80 81 82 84 85 85 86 86 87
31 31 31 31 31 30 30 29 29 29 28 29 28 28 28 28 27 26 26 27 28 28 29 30 29 30 33 36 37 38 39 40 41 42 44 44 44 45 45 46 46 47 47 47 47 48 48 48 49 50 50 51 52 53 53 54 55 56 56 57 58 59 60 61 61 62 63 64 64 65 66 67 68 70 72 74 76 78 80 82 85 87 88 89 89 90
32 32 31 31 31 30 30 29 29 29 29 30 31 31 31 31 30 30 30 30 29 29 31 32 33 34 37 37 38 40 40 41 42 43 45 45 46 46 47 47 48 48 49 49 49 50 50 51 51 52 53 53 54 55 56 56 57 58 58 59 60 61 62 63 63 64 64 65 66 67 68 68 69 70 70 71 72 73 75 77 80 83 85 87 90 91
31 31 31 31 31 31 31 31 31 32 32 32 32 32 31 31 31 32 32 32 33 33 34 36 37 39 41 40 40 42 42 43 43 44 46 47 47 48 48 49 49 50 50 51 51 52 52 53 53 54 54 55 56 57 57 58 58 59 60 60 61 62 63 64 65 66 66 67 68 68 69 70 70 71 71 72 72 72 72 73 74 76 78 80 83 85
30 30 31 30 30 30 30 30 31 32 32 31 31 30 31 31 31 31 32 33 36 37 37 38 39 40 42 42 42 44 45 45 46 46 48 49 49 50 49 50 51 52 52 53 53 53 54 54 55 55 56 56 57 58 59 60 60 60 61 61 62 63 64 65 66 67 67 68 68 69 70 71 71 72 72 73 73 72 72 72 72 73 74 75 76 77
30 30 29 29 29 29 30 31 30 30 30 30 30 30 31 32 32 32 33 35 37 39 39 39 39 40 43 44 44 45 46 47 48 49 49 50 51 51 51 51 52 53 54 54 54 55 55 55 56 56 57 58 58 60 61 62 62 62 62 63 64 64 65 66 67 68 68 69 69 70 70 71 72 72 72 73 73 73 73 72 72 72 73 73 73 73
29 29 28 28 29 30 31 31 30 30 31 31 31 32 32 33 35 36 37 38 39 40 40 40 40 41 45 47 47 48 49 49 50 50 50 51 52 53 53 53 54 54 55 56 56 56 56 56 56 57 59 59 59 61 62 63 64 65 65 65 65 66 66 67 68 69 70 70 70 71 71 71 71 72 72 72 73 73 72 72 71 71 72 73 73 72
28 29 29 30 31 31 31 30 30 31 32 33 33 34 34 36 37 38 40 40 41 43 43 43 42 41 44 48 49 50 50 50 52 52 52 53 53 54 55 55 56 56 57 58 58 58 58 58 58 58 60 60 60 61 62 64 65 66 67 66 67 67 68 68 69 69 70 71 71 71 71 71 71 71 71 72 72 72 72 71 71 71 71 71 72 71
29 30 30 31 30 30 30 31 32 32 33 34 34 35 36 37 38 39 40 41 42 45 46 46 44 41 43 47 50 52 52 51 53 54 54 55 56 57 57 57 58 58 59 59 59 59 59 59 60 60 61 61 61 61 62 63 65 66 67 67 67 68 69 69 69 70 70 71 71 71 71 71 71 70 71 71 71 71 71 70 70 70 70 70 70 70
29 30 30 31 30 31 31 32 33 33 33 34 35 35 35 37 38 38 40 40 42 45 47 49 47 43 43 47 50 53 53 53 54 56 56 57 58 59 59 59 59 59 60 61 60 59 59 59 60 61 62 62 62 62 62 63 64 66 68 68 68 69 70 70 71 70 71 71 71 71 71 71 70 70 70 70 70 70 70 69 69 68 68 69 69 69
29 29 30 30 30 31 31 31 31 32 33 34 35 35 35 36 37 39 41 41 42 44 47 50 50 45 44 47 50 53 54 54 55 57 58 59 59 60 61 61 61 61 62 63 62 61 60 60 62 63 64 65 64 64 64 65 65 66 68 70 69 70 71 71 71 71 71 72 72 71 71 71 70 70 69 69 69 69 69 68 67 67 67 67 67 67
29 29 29 29 29 29 29 30 31 31 32 34 34 36 37 37 37 39 42 43 43 44 46 50 51 48 47 49 51 54 56 56 57 58 59 60 60 61 62 63 63 63 64 64 64 64 63 63 64 66 67 68 68 67 67 67 66 66 69 71 70 70 71 72 72 72 71 72 71 71 71 70 69 69 68 68 67 68 67 67 66 65 65 65 65 65
29 29 29 30 30 30 31 32 32 33 33 34 35 35 37 39 40 40 43 45 46 46 47 51 54 53 52 51 53 56 58 58 59 59 60 61 62 63 64 66 67 68 68 68 67 67 66 66 66 67 69 70 70 70 70 70 69 68 69 72 72 71 72 73 73 72 72 72 72 71 71 70 69 68 67 66 66 66 66 65 65 64 64 64 64 64
29 30 31 31 32 32 33 33 34 34 35 36 37 37 37 39 42 43 44 47 48 48 49 52 55 56 55 54 56 59 61 61 61 62 63 64 64 65 67 69 70 71 72 72 71 70 69 68 68 69 70 72 73 73 73 74 73 71 71 73 73 73 73 74 74 73 73 72 72 71 71 70 68 67 66 66 65 65 65 64 64 63 63 63 63 63
30 31 31 32 33 34 34 35 35 35 36 37 39 40 40 40 42 44 45 47 50 51 51 52 55 57 55 55 58 61 63 63 63 64 65 66 66 66 67 69 71 72 72 73 73 73 72 71 71 71 72 74 75 76 76 76 76 74 74 75 75 74 74 75 75 74 74 73 72 71 70 69 68 67 66 65 64 64 63 63 63 62 62 62 62 61
31 31 32 32 34 34 34 35 37 37 37 37 38 40 42 42 43 44 46 48 50 53 52 52 56 59 56 55 58 62 63 65 65 65 65 66 66 67 67 69 71 72 73 73 74 74 73 72 71 71 72 74 76 77 77 78 78 77 76 76 76 76 76 75 75 75 74 73 72 71 70 69 68 66 65 64 64 63 62 62 62 62 62 61 61 61
32 32 32 32 34 35 36 35 37 38 38 38 39 40 42 44 44 45 47 48 50 54 54 52 55 60 58 56 59 62 63 65 65 65 65 66 67 68 69 70 71 73 75 75 75 75 74 73 72 73 74 75 76 78 78 80 80 79 77 78 77 77 76 76 75 75 74 73 72 71 70 69 67 66 65 64 63 62 62 62 61 61 61 61 61 60
33 33 33 33 33 35 37 37 38 39 39 39 40 41 42 44 46 46 48 49 51 54 56 55 56 58 58 58 62 63 64 66 67 67 67 67 68 69 71 72 72 73 75 76 76 75 75 74 73 74 75 76 77 79 80 81 82 81 79 79 79 78 77 76 75 74 73 72 71 70 69 68 67 66 65 63 62 61 61 61 61 61 61 61 61 61
35 35 35 35 33 33 37 38 39 40 40 39 40 42 44 45 47 48 49 51 53 55 56 57 58 58 58 61 64 65 66 67 69 70 70 70 70 71 73 75 75 75 76 77 77 76 75 74 74 74 75 76 78 79 80 82 83 82 80 80 80 79 78 77 76 74 73 72 71 70 68 67 66 65 64 63 61 61 61 61 61 61 61 61 61 61
36 36 37 37 36 34 36 38 38 39 41 41 41 43 45 46 48 49 50 52 54 56 57 58 60 60 59 62 65 66 68 69 70 71 72 72 72 74 75 76 77 78 78 79 79 77 76 75 75 75 76 78 79 80 81 82 83 82 80 80 80 79 78 77 76 74 73 72 70 69 68 67 66 64 63 62 61 61 61 60 60 60 60 60 60 61
38 38 39 40 38 36 38 40 40 40 41 42 43 45 46 48 49 50 51 53 54 56 58 60 62 63 63 64 66 67 69 71 72 73 74 74 75 76 77 78 78 79 80 81 80 79 78 77 77 77 78 79 81 82 82 83 83 82 80 80 79 79 78 77 75 74 73 72 70 69 67 66 65 64 63 61 61 61 60 60 60 60 59 59 59 60
39 40 40 41 41 39 40 43 43 42 42 43 45 47 48 49 51 52 53 54 56 57 60 62 63 65 66 67 69 69 70 72 74 75 75 76 77 79 79 79 80 81 82 82 82 80 79 79 79 80 81 82 83 83 82 83 83 82 80 80 79 78 77 76 74 73 72 71 69 68 67 65 64 63 62 61 61 60 60 60 59 59 59 58 59 59
40 41 42 43 44 42 42 44 45 43 43 44 47 49 50 50 52 54 55 56 56 57 60 64 66 67 68 69 71 72 72 73 75 76 76 76 80 82 81 82 83 84 84 84 82 81 80 80 81 83 83 84 85 85 84 83 83 81 80 79 78 77 76 75 74 73 71 70 69 67 66 64 63 62 61 61 61 60 60 59 59 58 58 58 59 59
41 42 43 44 45 45 44 46 47 45 44 45 48 51 52 52 54 56 58 57 57 59 62 65 67 68 70 71 72 74 74 74 75 76 76 77 81 83 84 84 86 86 86 85 84 83 82 83 83 84 85 86 87 87 86 85 84 82 79 78 77 76 75 74 73 72 71 69 68 66 65 64 63 62 61 60 60 60 59 59 59 59 59 59 59 59
42 43 44 45 46 47 47 48 49 48 46 45 48 53 54 54 56 59 58 56 58 61 64 66 68 69 71 72 74 75 76 76 75 75 76 79 82 84 86 87 88 89 89 88 87 86 86 87 87 87 87 88 88 88 87 86 84 82 79 77 76 75 74 73 72 71 70 68 67 65 64 63 62 61 60 60 60 60 60 59 59 59 59 59 59 60
43 44 46 47 47 49 50 50 50 51 49 48 51 55 57 57 58 61 62 59 59 63 66 68 70 71 72 74 75 77 78 78 76 76 78 82 85 87 89 90 91 91 90 89 89 89 90 91 91 91 90 90 89 88 87 86 84 81 78 76 75 74 73 72 70 69 68 67 65 64 63 62 61 61 60 60 59 59 59 59 59 60 60 60 60 60
43 45 46 48 48 50 53 53 53 53 51 51 54 58 59 59 60 63 66 64 63 65 68 70 73 74 75 76 77 78 80 81 80 79 81 85 88 90 91 92 91 91 91 91 92 93 94 95 94 94 93 91 89 87 86 85 82 79 76 74 73 72 71 70 69 68 66 65 63 63 62 61 61 60 60 59 59 58 59 59 59 59 60 60 60 60
43 45 47 49 49 50 53 55 56 56 53 52 56 59 60 61 62 64 68 68 67 68 71 73 75 75 76 78 78 79 82 84 84 83 84 87 90 91 92 93 92 92 93 94 96 97 99 99 98 97 95 92 89 87 84 82 79 76 74 73 71 70 69 68 67 66 64 63 62 61 61 61 60 60 59 58 58 58 58 58 58 58 58 59 58 58
44 45 47 48 49 51 54 55 56 56 54 52 56 61 62 63 64 66 70 70 69 71 73 75 76 76 77 78 79 80 82 85 87 88 88 90 92 92 93 94 94 95 96 98 100 101 102 102 100 99 96 93 89 85 81 79 76 74 73 71 70 68 67 66 64 63 62 61 60 60 60 60 59 59 58 57 57 57 57 57 57 57 57 57 57 57
46 47 47 48 50 53 55 56 56 54 52 53 57 62 64 65 65 68 71 72 72 73 74 76 76 76 77 78 80 81 82 84 87 89 90 92 93 94 94 95 96 98 101 102 103 104 104 104 103 100 95 91 87 82 78 75 73 72 71 69 68 66 64 63 61 60 60 59 59 59 59 59 58 57 57 56 56 56 56 56 56 56 56 56 56 56
46 47 49 50 52 54 55 57 56 54 53 55 60 63 65 66 67 69 71 72 73 74 75 75 76 76 77 78 79 81 82 84 86 89 90 92 94 95 97 98 100 102 104 105 105 106 106 105 102 97 92 88 84 80 76 73 70 69 68 67 65 64 62 60 58 58 57 57 57 57 57 57 57 56 55 55 55 55 55 55 55 55 55 55 55 55
45 47 50 52 53 55 56 57 56 55 55 58 61 63 65 67 68 70 71 71 71 73 74 74 75 76 77 78 79 81 83 85 87 89 91 93 95 97 99 102 105 106 107 108 108 107 106 102 97 92 88 84 81 78 75 72 69 67 66 64 63 61 59 57 56 55 55 56 56 56 55 55 55 55 54 54 54 53 53 54 54 54 54 54 54 54
45 48 52 54 54 55 57 56 55 55 56 58 61 63 65 66 68 70 72 72 71 72 73 74 74 75 77 78 80 82 84 86 88 90 92 94 97 100 103 105 108 109 109 110 109 106 101 95 90 86 83 80 78 75 72 70 67 65 63 62 60 57 55 54 53 53 53 54 54 54 54 54 53 53 53 53 52 52 52 53 53 53 53 53 53 53
48 50 52 53 52 54 55 54 53 54 55 58 61 61 62 64 67 69 71 72 72 73 74 75 75 76 77 79 81 83 85 87 89 91 94 97 100 102 105 107 109 110 111 110 106 101 96 91 87 83 80 77 75 73 70 68 65 62 60 58 56 54 52 51 51 51 51 52 52 52 52 52 52 52 52 51 51 51 51 51 51 51 52 52 52 52
52 52 52 52 52 53 53 51 52 54 56 58 60 60 61 64 66 67 69 70 72 73 73 74 75 76 77 80 82 84 86 88 90 93 96 99 102 104 107 109 111 111 110 106 101 97 93 90 86 82 79 76 74 71 68 65 62 58 56 55 53 51 50 49 49 49 50 50 50 51 51 50 50 50 50 50 50 50 50 50 50 50 50 51 51 51
54 53 53 53 54 54 53 52 53 56 57 57 58 59 61 63 65 66 68 69 70 71 71 72 73 75 78 80 83 84 86 89 92 95 98 100 103 105 108 111 111 109 105 100 97 95 92 88 85 81 78 75 71 68 64 60 57 54 52 51 50 48 47 47 47 47 48 49 49 49 49 49 49 48 48 49 49 49 49 49 49 49 49 50 50 50
55 54 53 54 54 55 55 55 56 58 58 57 58 60 62 63 64 64 66 67 68 69 70 71 73 75 78 80 82 84 86 89 93 97 99 101 104 107 110 111 109 104 100 97 96 94 90 86 83 79 76 72 67 63 58 55 52 50 49 48 47 46 45 45 45 46 46 47 48 48 48 47 47 47 47 47 47 47 47 47 48 48 49 49 49 49
56 55 53 54 55 55 56 57 58 59 58 57 59 61 62 64 64 64 65 66 66 67 68 70 73 76 79 80 82 84 87 91 94 97 99 102 105 109 110 108 104 99 96 96 94 92 88 84 81 77 73 67 62 57 53 50 49 48 47 45 44 43 43 43 44 44 45 46 46 46 46 46 46 46 46 46 45 45 46 46 47 47 47 48 49 48
58 56 54 55 56 56 58 59 61 61 61 60 60 61 62 63 63 64 64 64 65 66 67 70 73 75 78 80 83 86 89 92 95 97 100 103 107 110 109 104 98 95 94 94 92 89 85 82 79 74 68 62 57 53 50 48 47 46 44 43 42 41 42 42 43 43 44 45 45 45 45 44 44 44 44 44 44 44 44 45 46 46 46 46 47 47
59 58 56 56 58 58 59 60 61 62 62 61 61 62 62 63 63 63 64 64 65 66 69 71 73 74 75 78 83 87 90 92 94 97 101 105 108 108 104 98 94 92 92 92 90 86 83 79 75 69 63 58 53 50 48 46 45 43 41 40 40 40 41 42 42 43 43 44 43 43 43 43 43 43 43 43 43 43 42 42 43 45 45 45 45 45
Wind_Direction
294 294 295 296 297 297 297 297 296 295 295 295 294 293 292 292 291 292 292 292 290 290 289 289 290 290 290 290 289 288 288 288 288 288 288 287 287 286 286 286 286 286 286 285 285 285 284 284 283 283 282 282 281 280 280 279 278 278 277 277 276 276 275 275 275 275 274 274 274 274 274 273 273 272 272 271 271 270 270 270 269 269 269 268 268 268
298 298 299 300 299 299 298 298 297 296 296 295 294 294 293 293 293 293 293 292 291 291 290 290 289 289 289 289 289 289 289 289 288 288 287 287 286 286 285 285 284 284 284 283 283 283 283 283 282 282 282 281 281 280 280 279 279 278 277 277 276 276 275 275 275 274 274 273 273 273 272 272 272 271 271 270 270 270 269 269 269 268 268 267 267 267
302 302 302 302 301 301 300 300 298 297 297 296 295 295 294 294 293 293 293 292 292 291 292 292 290 290 290 290 291 291 291 290 289 287 287 286 286 285 285 285 284 284 284 283 283 282 282 282 281 281 281 280 280 280 279 279 278 278 277 276 276 275 274 274 274 273 273 272 272 272 271 271 271 271 270 270 270 269 269 269 268 268 267 267 266 266
308 308 307 306 305 305 304 302 301 300 299 298 296 295 294 294 293 292 292 292 292 292 292 293 292 291 290 290 291 291 291 292 291 291 290 289 288 288 287 287 287 286 285 285 284 283 283 282 281 280 280 279 279 279 278 278 277 277 277 276 275 275 274 273 273 273 272 272 272 271 271 271 271 271 270 270 270 269 269 269 269 268 268 267 267 267
314 313 311 309 308 306 305 303 301 299 299 298 297 297 296 296 295 295 294 294 294 294 294 294 295 293 292 292 293 294 294 294 295 296 296 295 295 294 293 292 291 290 289 288 287 286 285 284 283 282 281 280 279 279 278 278 278 277 277 277 276 276 275 274 274 273 273 272 272 272 272 272 271 271 271 270 270 270 269 269 269 268 268 267 267 267
313 312 310 309 308 307 306 304 303 302 301 301 300 300 299 298 298 297 297 297 297 298 299 299 300 299 298 298 299 299 300 302 302 303 303 302 301 300 299 298 297 296 294 293 291 290 289 288 287 286 284 283 282 281 280 280 279 279 279 278 277 276 276 275 275 274 274 274 274 273 274 274 274 273 273 273 272 272 272 271 271 271 270 269 268 268
313 313 312 313 312 311 310 309 308 306 305 304 302 302 302 302 302 303 303 303 304 305 305 304 304 305 305 306 307 308 308 309 308 307 308 308 308 308 307 306 305 303 302 300 298 297 295 294 293 292 291 289 288 287 285 284 283 282 281 280 279 279 278 277 277 277 276 276 276 276 276 276 277 277 277 277 276 276 275 275 275 275 274 273 272 271
318 319 319 318 316 314 313 311 309 307 306 306 306 306 307 307 308 309 310 310 310 310 310 311 312 313 314 315 315 314 313 312 312 314 316 318 319 318 317 316 315 313 312 310 308 306 305 303 302 301 300 299 298 296 294 292 289 286 284 282 281 280 280 280 280 280 280 280 280 279 279 279 279 279 279 279 279 279 279 278 278 278 278 277 276 275
324 322 320 318 316 314 313 311 311 310 311 312 312 312 312 313 313 314 315 314 315 315 317 321 321 320 322 324 323 321 321 322 324 326 327 327 326 326 325 324 323 322 321 320 318 316 315 313 312 310 309 308 307 306 304 302 300 297 293 290 287 285 283 283 282 282 283 283 283 283 283 282 282 281 281 280 280 280 279 279 279 279 279 279 278 277
324 321 319 319 317 316 315 315 315 316 317 318 317 317 318 319 319 319 321 322 326 328 330 333 332 330 331 333 331 331 333 334 333 333 332 330 329 329 328 327 327 326 326 325 324 323 322 320 319 318 317 315 315 314 313 312 310 309 307 304 301 298 295 292 289 287 286 285 285 284 284 283 283 283 282 281 281 280 279 279 279 278 278 278 278 277
324 323 323 322 320 319 320 321 322 322 322 322 323 325 325 327 328 329 332 335 338 339 339 340 340 336 335 336 337 337 337 336 334 332 332 331 330 329 329 328 327 326 325 325 324 324 323 323 322 321 320 320 319 318 317 316 314 312 311 309 308 306 304 301 299 296 293 291 288 287 285 284 283 282 281 281 281 281 280 279 279 278 278 278 277 277
327 327 326 325 326 327 327 328 329 329 329 330 332 333 333 334 337 339 341 344 345 345 344 344 342 338 337 339 339 337 335 334 333 331 330 330 329 329 329 328 327 326 325 325 324 324 324 324 323 322 321 319 319 318 317 315 314 313 311 310 309 307 306 304 302 301 299 297 295 293 291 288 286 285 283 282 281 280 280 279 279 278 278 278 278 278
332 333 332 332 334 336 335 336 336 337 338 340 340 340 342 345 347 347 349 352 351 349 346 344 342 341 340 340 338 336 334 333 332 330 329 329 329 329 328 327 327 326 325 325 324 324 324 324 323 322 321 319 318 317 316 315 313 312 310 309 308 306 305 304 302 301 300 298 297 296 295 293 292 290 288 286 284 282 281 280 279 278 278 277 277 277
338 338 338 340 342 342 343 344 344 346 348 348 349 350 353 353 353 353 353 353 350 349 345 341 342 343 342 340 336 334 334 333 332 330 329 329 329 328 327 326 326 325 324 324 324 324 324 324 323 322 321 319 318 316 315 314 312 311 309 308 306 305 304 303 301 300 299 298 297 296 295 294 293 292 291 290 289 287 285 284 282 280 279 278 277 277
344 343 344 346 347 348 349 349 351 353 355 356 356 356 357 356 355 353 351 348 346 346 344 341 344 345 339 337 336 334 334 334 333 331 330 330 329 328 327 326 325 324 324 324 324 324 324 323 322 321 320 318 317 316 315 314 312 310 309 307 306 305 304 303 301 300 299 298 297 296 295 294 294 293 292 291 290 289 288 286 285 283 282 280 279 278
350 351 352 352 353 354 356 357 359 359 359 359 358 357 356 355 353 350 346 345 344 344 344 343 345 342 335 336 338 335 335 336 334 333 332 331 330 328 328 326 325 324 324 324 323 323 323 322 322 320 319 317 317 316 315 314 312 311 309 308 306 305 304 303 302 300 299 298 297 296 296 295 294 293 292 292 291 290 289 288 286 285 284 283 281 280
355 357 358 357 359 1 2 2 3 1 359 359 357 355 354 352 349 347 345 345 344 343 344 342 344 341 335 337 337 335 336 337 335 334 333 332 330 329 328 327 325 324 323 323 323 323 323 322 321 320 318 317 317 316 315 314 313 312 310 309 308 306 305 304 303 302 301 300 299 298 297 296 295 294 293 292 292 291 291 290 288 287 286 285 284 283
360 0 1 0 2 4 4 3 1 0 359 358 356 353 352 349 348 347 345 345 343 342 342 341 344 344 337 336 336 335 338 337 335 334 333 332 331 329 328 327 326 325 323 322 322 322 322 321 320 319 317 317 317 316 315 314 313 313 312 310 309 307 306 305 304 303 302 301 300 299 298 297 296 295 294 293 293 292 291 290 289 288 287 286 285 284
1 1 2 2 4 4 3 1 359 358 358 356 354 351 350 348 347 346 344 344 341 340 340 339 344 345 338 336 336 335 336 336 334 334 333 332 331 330 329 328 327 325 324 323 322 321 321 320 319 318 317 317 318 317 316 315 313 312 311 310 309 308 306 305 305 304 303 302 301 300 299 298 297 296 295 294 293 292 291 290 289 288 287 286 285 284
1 1 1 2 2 0 358 358 357 357 355 353 351 350 349 347 345 344 342 342 340 338 337 337 342 347 341 337 336 333 334 336 333 333 333 333 332 331 331 330 328 326 324 322 321 320 319 319 318 318 317 317 317 316 315 314 313 312 311 310 309 308 307 306 305 305 304 303 302 301 300 299 298 297 296 295 294 293 292 291 289 288 287 286 285 284
359 359 359 358 358 356 356 356 355 354 352 351 349 347 347 345 343 342 340 340 339 338 336 335 340 347 342 337 334 331 332 335 333 332 333 333 333 332 331 330 329 326 323 322 321 320 318 316 316 316 316 316 316 316 315 314 314 313 311 311 310 308 308 307 306 306 305 304 303 303 301 300 299 298 297 296 295 294 293 291 290 289 288 287 286 285
357 356 356 356 355 354 355 354 353 352 350 348 347 344 345 344 342 340 338 338 339 338 335 333 336 343 341 336 333 329 331 334 332 332 332 331 332 331 330 329 327 325 323 322 322 320 318 316 315 315 315 316 317 317 317 316 315 314 312 311 310 309 308 307 307 306 306 305 304 303 302 301 300 299 298 297 296 294 293 292 290 289 288 287 287 286
354 354 354 354 353 352 353 352 351 350 348 347 345 343 342 342 341 340 337 337 338 337 335 332 332 337 338 336 332 329 330 333 332 331 331 330 330 329 327 326 325 324 323 323 322 321 319 317 316 316 316 317 317 317 317 316 316 315 312 311 311 310 309 308 307 307 306 305 305 304 303 301 300 299 299 298 296 295 293 292 291 289 289 288 287 286
351 351 350 350 350 349 350 350 350 349 347 345 344 342 341 340 339 340 337 335 336 336 335 332 330 332 335 336 333 329 330 332 331 330 329 328 328 327 326 326 325 325 325 325 324 322 320 318 316 315 315 315 316 316 316 316 316 316 314 312 312 310 309 308 308 307 306 305 305 304 303 302 301 300 299 298 296 295 293 292 290 289 289 288 288 287
350 349 348 347 347 347 348 348 347 347 345 343 341 340 340 339 338 338 336 334 333 333 334 333 329 330 335 336 332 329 329 331 330 329 328 327 328 328 327 326 326 326 326 325 324 322 320 318 316 315 314 315 315 316 316 316 317 317 315 313 312 311 310 309 308 307 307 306 305 304 303 302 301 300 299 297 296 295 293 292 291 290 289 289 288 287
348 348 347 346 346 346 346 345 344 345 344 343 340 338 338 338 336 335 334 333 332 331 332 333 329 329 335 335 330 328 329 329 329 329 329 328 328 327 326 325 324 325 325 324 322 321 319 317 316 315 314 315 315 315 316 316 316 317 316 313 312 311 310 309 308 307 307 306 305 304 303 303 301 300 299 297 296 295 293 292 291 290 290 289 289 288
346 346 346 346 345 344 345 344 342 342 342 342 340 336 334 335 334 333 332 331 330 328 331 334 328 327 334 334 328 327 328 328 328 328 328 327 326 326 325 323 323 323 323 322 321 320 318 316 315 314 313 314 314 315 315 315 316 317 316 313 312 311 310 309 308 307 306 306 305 304 303 302 302 300 299 297 296 294 293 292 292 291 291 290 290 289
345 345 346 346 344 341 342 342 340 339 340 339 337 334 332 331 331 331 330 330 328 326 329 332 327 326 332 331 326 326 327 326 326 326 326 326 325 325 323 322 322 322 323 322 321 320 318 316 314 313 313 313 313 314 314 314 315 316 315 313 312 311 310 309 308 307 306 305 304 304 303 302 302 301 299 297 295 294 293 292 292 291 291 291 291 290
343 343 343 344 344 340 338 339 338 336 337 337 335 332 330 329 329 329 330 328 327 326 328 330 327 327 330 328 325 326 326 325 326 326 326 326 325 324 322 322 322 323 322 322 321 319 317 315 314 313 313 313 313 313 314 314 314 315 314 312 311 310 309 308 307 306 305 304 304 303 302 302 301 300 299 297 295 294 293 293 292 291 291 291 291 290
341 341 340 341 344 341 335 335 335 334 334 334 333 330 328 328 328 328 328 327 326 327 328 327 326 328 329 326 324 326 326 325 325 325 326 327 326 324 322 322 323 323 322 321 320 318 317 314 313 312 312 312 312 312 313 313 313 314 313 311 310 310 309 308 306 305 304 303 303 302 301 301 300 299 298 297 295 294 293 293 292 291 291 291 291 290
338 339 338 338 341 341 334 331 332 332 332 332 331 329 327 327 327 327 326 326 325 327 328 325 324 327 328 325 325 326 325 325 325 326 326 327 326 324 323 323 323 322 322 321 319 318 316 314 313 312 312 312 312 312 312 312 312 313 312 310 309 309 308 307 305 304 303 302 302 301 301 300 300 299 298 297 295 294 294 293 292 292 291 291 291 290
336 336 336 334 337 338 333 330 331 332 332 332 330 327 327 327 326 326 325 325 326 327 326 324 324 326 326 325 325 326 325 325 325 326 327 327 325 323 323 323 323 322 321 320 319 318 316 314 313 313 312 312 312 312 313 312 312 312 311 309 308 307 306 305 304 303 302 302 301 301 300 300 299 299 298 296 295 294 293 293 292 292 291 291 290 290
334 334 333 332 333 336 333 328 329 331 331 331 328 326 326 327 325 324 324 325 327 327 325 324 325 325 326 326 325 325 326 326 326 326 328 326 323 322 323 323 322 321 320 319 318 317 316 315 313 313 313 313 313 313 313 312 311 311 310 308 307 306 305 304 303 302 301 301 300 300 299 299 298 298 297 296 295 294 293 292 292 292 292 291 290 290
333 331 331 330 330 333 332 326 326 329 330 331 327 324 325 325 323 323 324 326 328 327 324 324 325 325 325 326 325 325 326 326 326 327 328 325 322 322 323 323 322 321 320 319 318 317 315 314 314 314 314 314 313 313 313 311 311 310 309 308 307 305 304 303 302 302 301 300 300 299 298 298 298 297 297 296 295 294 293 292 292 292 291 291 291 290
332 329 329 329 328 330 330 326 325 328 331 331 326 322 322 323 323 322 323 326 327 325 323 324 324 324 324 325 325 325 325 326 326 327 327 323 322 322 322 322 321 320 319 318 317 316 315 315 315 315 315 314 314 313 312 311 311 310 309 307 306 304 303 302 302 301 300 300 299 299 298 298 297 297 297 296 294 294 293 292 292 291 291 291 291 291
330 328 328 327 327 327 327 325 324 326 330 330 324 320 321 323 323 321 322 326 326 324 323 323 322 323 324 324 324 325 325 325 327 327 325 322 322 322 322 322 321 320 320 319 318 318 317 316 317 316 315 314 314 313 312 311 311 310 309 307 306 304 303 302 302 301 300 300 299 298 297 297 297 297 296 296 295 294 293 292 292 292 291 291 291 291
328 327 326 326 326 326 324 324 325 325 328 329 323 320 321 322 322 321 321 325 326 324 323 323 322 324 325 324 325 324 324 325 327 327 325 323 323 323 323 323 322 322 321 320 319 318 317 317 317 316 316 315 314 313 312 311 310 309 308 307 305 304 303 302 302 301 300 300 299 298 297 297 296 296 296 296 295 294 293 293 292 292 292 292 291 291
327 326 325 324 326 324 322 324 326 326 329 330 323 319 320 321 322 321 320 323 325 324 324 324 324 325 325 324 324 324 324 325 327 328 326 324 324 324 324 323 323 322 321 320 318 318 317 317 317 316 316 315 314 313 311 310 309 309 308 306 305 304 303 302 301 301 300 299 298 297 297 297 296 297 297 296 296 295 294 294 293 293 293 292 292 292
326 326 324 323 324 322 320 323 326 326 330 329 321 318 320 321 323 322 320 323 325 325 325 325 324 325 324 324 324 324 325 325 327 328 327 325 325 325 324 323 322 321 320 319 318 318 317 317 317 317 316 315 314 312 311 310 309 308 307 306 305 304 303 302 301 301 300 298 298 297 297 296 297 297 297 297 296 295 295 294 294 294 293 293 293 292
327 326 324 323 323 320 320 324 327 329 331 327 319 318 321 323 323 322 320 323 325 325 325 324 324 324 324 324 324 325 326 326 326 327 327 326 325 324 323 322 321 320 319 319 318 318 318 318 318 317 316 315 314 313 311 310 309 308 306 305 305 304 303 302 302 301 299 298 298 297 297 297 298 298 298 297 297 296 296 295 294 294 294 294 293 293
328 326 324 323 321 320 322 325 330 333 332 325 319 319 321 323 323 322 321 323 324 324 323 323 323 324 324 325 325 326 327 327 326 326 326 325 324 324 323 322 321 320 319 319 319 319 318 318 318 317 316 315 314 313 311 310 309 307 306 305 305 304 303 303 302 300 299 299 298 298 298 298 299 299 299 298 297 297 296 296 295 295 295 295 295 295
328 325 324 322 322 323 325 327 331 334 330 323 320 321 323 323 322 321 322 323 323 322 322 323 324 324 325 326 326 327 327 327 326 326 325 324 324 324 323 322 321 320 320 320 320 320 319 319 318 318 317 316 314 313 311 310 308 307 306 305 305 305 305 304 302 300 300 299 298 298 299 299 299 300 299 298 298 297 297 297 296 296 296 296 296 296
327 324 323 323 325 326 326 330 334 332 327 323 322 322 323 323 321 321 321 323 322 322 323 324 325 325 325 326 327 327 327 327 326 325 325 325 325 324 323 322 321 321 321 321 321 321 320 320 319 319 318 316 315 313 312 310 308 307 306 306 306 306 306 304 302 301 300 300 299 299 300 300 300 300 299 299 299 298 298 297 297 297 297 297 297 297
326 324 324 326 328 326 327 332 334 329 324 321 321 322 323 322 320 320 321 323 323 323 324 325 326 326 326 327 327 327 327 326 326 326 326 326 326 325 324 323 322 322 322 322 322 322 321 321 321 320 318 316 315 313 311 310 308 307 307 307 307 307 306 304 303 302 301 300 300 301 301 301 301 301 300 300 300 299 299 298 298 298 298 298 298 298
327 326 327 329 329 327 329 333 331 325 322 321 322 324 324 321 320 321 322 323 324 325 325 326 326 327 327 327 327 328 327 327 327 327 327 327 327 326 324 323 323 323 324 324 324 324 323 323 322 320 318 316 314 313 311 310 309 308 308 308 308 307 306 305 304 303 302 301 301 302 302 302 302 302 302 301 301 301 300 300 300 299 299 299 299 299
330 330 329 330 330 329 332 334 329 325 325 325 326 326 324 322 322 323 323 324 324 325 325 326 327 327 328 328 328 328 328 327 328 328 328 328 327 326 325 324 324 325 326 326 326 326 325 324 323 321 319 317 315 313 312 311 310 309 309 309 308 308 307 306 305 304 303 303 303 303 303 303 303 303 303 303 302 302 302 301 301 301 300 300 300 301
333 332 330 330 331 332 334 334 329 327 329 329 328 326 323 323 324 324 324 324 324 325 326 326 327 328 328 328 328 328 328 329 329 329 329 329 328 327 326 326 326 327 328 328 328 327 326 325 323 322 320 318 316 315 313 312 311 310 309 309 309 309 308 307 305 305 304 304 304 304 304 305 305 305 304 304 304 304 303 303 303 302 302 302 302 303
334 333 331 331 332 332 333 333 330 330 331 331 329 326 325 326 326 325 324 324 325 326 327 327 328 328 328 329 329 329 330 330 330 330 331 330 329 328 327 328 329 330 331 330 329 328 326 325 324 323 321 320 318 316 314 312 311 310 310 310 311 311 309 307 306 306 306 305 306 306 306 307 307 306 306 305 305 305 305 304 304 304 304 303 304 305
335 333 331 331 332 333 333 332 332 333 334 333 330 328 327 327 327 326 326 326 326 327 328 328 329 329 329 330 330 330 331 332 332 332 331 330 329 328 329 330 332 333 333 331 330 329 328 327 326 325 323 321 319 317 315 313 312 311 312 313 313 312 310 309 308 308 307 307 308 308 309 309 308 308 307 307 307 307 307 306 306 305 306 306 306 307
336 334 332 331 333 334 334 333 333 334 335 334 331 329 329 328 328 328 328 328 328 328 329 330 330 331 331 331 331 332 333 333 333 332 332 331 330 330 331 333 335 335 334 333 332 332 331 330 328 327 326 324 321 319 317 315 315 316 317 317 315 313 312 311 310 310 310 310 311 311 311 311 310 310 309 309 309 309 309 308 308 308 308 308 309 309
337 335 334 333 334 335 335 333 333 333 333 333 331 330 330 330 329 329 329 329 330 330 331 331 332 332 332 332 332 333 333 333 334 334 333 332 332 332 334 336 337 337 336 335 335 335 334 333 332 331 330 328 325 323 321 320 321 322 321 319 317 316 315 314 314 314 314 314 314 314 314 313 312 312 311 311 311 311 311 311 311 310 310 311 311 311